Theta_e
312 315 316 315 316 314 316 319 318 315 320 319 318 319 323 320 316 308 312 323 329 329 327 329 331 324 324 327 329 331 331 331 331 331 330 329 331 332 332 331 330 328 329 328
307 314 314 314 314 314 312 315 317 319 322 323 326 326 322 320 316 306 307 309 313 319 319 322 329 331 328 324 325 327 330 331 331 330 330 330 331 330 331 332 330 330 327 327
312 311 313 314 317 318 312 314 315 322 321 318 323 320 317 316 316 312 308 306 308 313 314 320 323 323 328 327 324 323 325 327 329 330 330 328 327 326 326 326 326 327 329 329
306 310 312 313 316 316 319 315 314 318 322 326 315 323 314 314 314 314 311 306 307 308 312 312 315 315 315 319 323 326 325 324 325 325 325 326 327 327 327 327 327 329 330 331
307 309 309 314 315 313 317 313 316 316 318 320 318 320 317 313 314 313 313 307 306 307 308 311 310 311 311 314 316 319 321 327 328 328 327 326 326 327 328 329 330 331 331 331
307 305 308 309 312 311 313 314 314 315 316 317 319 319 317 318 315 312 309 309 307 307 307 306 308 309 308 311 312 314 318 317 324 326 328 328 329 330 329 330 329 329 327 326
307 306 306 307 310 310 312 313 313 314 311 320 316 316 317 312 310 309 307 308 307 305 307 306 306 306 308 308 308 309 311 310 314 317 318 322 326 326 327 324 325 324 323 320
310 306 306 307 309 311 311 312 315 315 316 318 310 315 314 310 310 310 308 307 307 306 304 305 305 306 306 306 307 308 308 309 309 310 310 311 312 314 317 318 318 316 315 315
311 309 307 307 308 308 310 312 311 312 306 312 309 308 308 311 308 305 306 307 308 307 306 304 305 306 305 305 305 306 307 307 308 309 309 310 310 311 311 311 312 312 313 314
311 310 308 308 306 306 308 308 310 307 309 312 313 307 309 307 306 305 304 303 302 302 303 304 305 305 305 305 304 305 305 305 305 307 308 308 309 310 311 312 312 312 312 313
308 309 307 306 308 310 308 308 308 308 309 311 313 309 303 306 305 303 303 303 302 301 301 301 302 302 303 304 304 304 304 304 303 303 303 304 306 308 309 309 309 310 310 310
308 307 303 310 306 305 308 310 307 305 308 308 309 309 305 305 304 302 302 302 299 298 298 298 299 299 300 301 303 303 303 303 303 303 303 302 302 304 305 307 307 307 307 307
308 300 295 300 302 304 308 309 308 306 306 309 306 308 304 302 302 301 302 300 298 297 296 296 297 298 298 298 298 300 302 303 303 303 303 302 302 302 302 302 303 304 304 303
306 304 300 301 303 304 307 309 308 307 304 308 307 305 305 303 301 300 300 298 297 297 296 296 296 296 297 297 297 298 299 300 302 302 302 302 302 302 302 301 301 301 301 301
302 300 300 301 300 301 304 307 307 309 307 305 308 305 303 306 301 300 300 298 297 297 296 296 296 296 296 297 297 298 298 298 299 302 302 302 301 301 301 301 301 301 301 300
297 297 295 294 297 296 298 300 303 305 308 308 308 309 306 301 297 298 298 297 296 296 296 295 295 296 296 296 296 297 297 298 298 299 301 302 302 301 301 300 300 300 300 300
298 290 287 291 292 290 291 293 299 301 303 305 308 306 301 297 298 299 297 296 297 296 296 295 295 296 296 296 296 296 296 297 298 299 299 300 301 301 301 300 300 299 299 297
295 285 279 287 284 291 296 293 295 297 297 301 301 300 299 296 298 297 295 296 297 296 295 294 296 296 297 297 297 297 297 297 298 298 298 299 300 300 300 299 299 298 298 297
295 293 283 289 279 290 295 295 295 297 296 296 298 297 296 297 296 297 297 297 297 296 295 295 296 296 296 296 297 296 297 297 297 297 298 298 298 299 299 299 298 298 297 296
294 293 289 282 285 287 293 297 296 294 293 294 295 295 296 295 297 292 293 294 294 295 295 296 296 296 295 296 295 295 295 296 296 296 297 297 298 298 298 298 297 297 296 296
287 285 287 288 285 289 291 293 295 291 293 296 296 296 294 294 293 292 294 294 295 295 296 296 296 296 296 296 296 295 294 294 295 296 296 296 297 297 297 297 296 296 295 295
295 288 285 282 285 293 293 294 296 294 294 295 295 295 295 294 295 294 293 292 294 294 295 295 294 295 296 295 295 295 294 294 295 295 295 295 295 296 296 296 295 295 294 293
294 294 293 293 294 294 293 296 295 293 294 296 297 296 296 295 294 293 292 291 293 294 294 295 294 294 296 295 294 294 295 293 294 294 294 293 294 294 295 295 295 295 294 294
293 291 293 294 295 293 293 294 294 294 295 296 294 294 294 294 293 292 291 291 292 294 294 294 294 294 295 296 295 295 294 293 293 294 294 293 294 294 294 294 295 294 294 293
292 292 292 292 294 294 294 292 293 293 293 293 293 293 293 292 292 291 291 291 292 293 294 294 294 293 294 295 295 295 295 293 293 293 293 293 293 294 294 293 293 293 294 294
291 293 295 294 294 294 295 294 293 292 293 292 293 293 292 292 291 292 290 293 293 294 295 294 294 293 295 295 295 296 296 294 293 292 293 293 293 293 294 293 293 292 293 292
Wind_Speed
2 2 9 16 9 13 9 9 8 10 6 11 15 11 6 15 15 16 13 7 4 5 4 6 11 16 20 23 25 25 26 27 27 27 25 23 24 24 24 23 21 18 18 17
4 2 5 12 10 5 6 6 9 9 8 3 10 11 9 12 5 10 10 11 8 5 6 9 6 11 14 21 22 23 25 27 27 27 27 26 23 25 30 26 26 22 19 18
1 5 8 7 8 11 3 6 6 4 11 7 3 3 6 5 7 11 16 12 10 10 12 10 13 14 7 5 10 14 17 21 22 23 23 18 20 17 16 19 19 19 18 17
3 5 4 5 7 11 6 14 8 6 2 3 3 2 4 6 10 12 15 16 13 13 6 9 12 17 17 15 11 5 8 13 15 15 17 18 16 16 18 18 18 18 15 15
4 6 6 6 6 11 4 13 3 5 5 3 7 3 3 3 7 9 14 13 11 6 8 8 9 14 17 19 15 11 5 7 5 7 9 12 16 19 18 20 21 15 14 13
3 4 2 3 0 3 5 5 1 2 2 4 6 2 3 3 5 2 10 17 13 9 6 7 6 14 16 18 14 12 11 8 3 3 1 6 10 17 19 19 13 10 9 6
6 5 5 2 3 4 6 4 3 5 5 3 8 4 4 5 5 3 3 4 11 9 9 7 6 14 13 15 13 11 10 9 4 4 6 7 10 13 14 12 11 12 9 7
4 6 6 7 2 3 4 3 2 1 3 2 7 6 3 2 1 3 3 3 7 11 8 8 10 12 12 10 9 5 2 3 6 4 3 3 6 6 7 7 8 7 6 4
4 3 5 2 3 2 5 4 2 4 1 3 3 2 1 3 1 4 3 3 5 7 8 8 12 13 11 9 10 8 9 8 8 4 3 2 2 1 2 3 3 4 4 3
2 4 3 4 3 3 4 1 3 3 3 2 3 3 3 6 5 6 7 7 7 5 4 6 7 11 10 10 10 10 10 7 6 5 5 4 4 3 3 2 1 3 3 4
2 1 6 2 5 2 5 3 4 4 2 2 3 2 3 4 5 6 6 7 7 7 7 6 9 13 15 14 12 11 9 7 5 4 5 5 4 3 4 3 3 3 4 4
2 2 3 2 3 2 1 2 1 3 2 2 2 2 2 4 5 6 6 6 6 6 6 8 13 18 22 25 23 18 14 11 9 7 7 7 5 4 4 3 4 4 3 4
2 2 3 7 5 4 5 3 2 2 2 1 4 3 1 5 5 5 5 5 6 6 8 7 13 15 17 21 24 23 20 15 11 9 6 5 4 5 5 4 4 3 4 4
1 1 4 4 3 1 4 3 3 1 3 2 2 4 3 3 6 4 5 5 5 5 6 6 8 13 19 23 24 25 23 19 14 8 7 6 5 3 2 2 2 2 3 4
2 2 2 1 1 1 2 3 3 1 2 4 2 5 6 2 3 3 4 4 6 7 8 7 7 12 20 23 26 25 24 22 19 15 9 8 6 4 3 3 3 3 2 3
2 2 1 3 3 4 3 4 4 2 1 1 2 1 2 3 5 5 4 5 6 6 7 7 7 15 18 21 24 25 25 23 20 18 14 9 7 6 5 5 4 4 5 6
2 4 3 4 4 3 5 6 5 2 1 4 4 3 2 3 5 4 4 4 4 3 4 6 7 12 16 18 19 21 22 20 20 18 16 13 9 8 7 7 7 6 5 5
4 4 2 3 4 2 4 1 1 3 4 4 1 4 2 3 2 4 3 3 2 4 6 6 8 10 13 15 17 19 20 20 19 18 17 14 11 9 8 8 8 8 9 8
1 4 2 3 3 6 3 3 5 5 1 3 5 1 4 5 3 0 4 3 3 3 4 7 9 11 13 13 14 16 18 18 19 19 18 16 13 10 8 9 9 10 9 9
3 4 3 2 5 5 4 1 1 2 2 3 4 4 6 4 3 4 4 3 6 8 9 11 11 10 11 12 13 15 16 17 18 19 18 15 12 9 7 7 9 9 9 10
1 3 5 2 1 7 7 3 2 6 4 2 4 5 5 3 4 3 2 6 8 10 14 14 13 13 14 15 14 14 14 14 14 14 13 12 10 8 5 5 8 9 10 11
7 6 4 3 3 7 6 4 5 4 1 5 4 5 4 4 2 5 7 7 11 13 12 11 13 14 15 15 14 14 14 13 12 11 9 7 6 3 2 4 7 8 10 11
3 6 5 7 5 4 5 1 3 4 4 3 3 2 1 3 4 5 6 7 11 15 17 15 13 16 19 17 15 17 14 11 10 9 7 6 3 3 3 6 9 11 9 10
4 4 3 3 4 7 5 2 4 5 5 3 3 2 4 4 5 6 7 7 10 18 18 18 16 19 22 19 17 18 16 13 11 10 8 6 5 4 6 7 10 11 13 12
4 7 6 4 5 3 5 6 5 5 5 3 3 3 5 4 7 6 6 9 16 17 18 17 17 19 21 20 17 15 16 15 15 13 13 11 11 10 10 11 12 12 11 12
5 7 5 5 7 5 4 4 6 6 5 7 5 3 4 6 8 10 9 18 18 20 21 19 20 19 22 21 20 15 16 18 18 19 18 17 16 16 15 15 16 16 17 16
Wind_Direction
282 7 343 324 267 254 279 283 275 296 241 172 193 190 43 46 9 13 25 315 35 36 2 171 188 197 205 211 213 213 211 215 215 216 219 225 230 236 240 240 243 250 251 254
7 317 328 337 332 6 343 287 279 235 167 129 139 149 73 66 351 350 39 16 356 8 10 22 167 185 195 209 214 217 222 221 220 222 224 228 238 248 246 249 251 253 255 259
334 277 316 334 343 350 319 353 318 88 103 50 90 41 49 33 61 341 17 24 14 26 26 19 45 53 96 123 211 222 225 232 228 229 231 235 237 242 248 245 246 247 257 259
256 301 309 16 4 344 349 353 348 14 62 119 317 116 47 10 54 349 0 4 15 3 25 29 37 46 40 49 72 139 220 233 237 238 240 239 240 243 250 255 252 247 244 252
284 328 340 50 359 351 330 326 2 46 62 97 358 84 0 58 76 28 348 336 19 273 37 37 36 53 51 47 38 46 69 167 200 225 237 248 254 258 264 264 263 242 233 238
262 283 343 308 223 313 297 351 300 80 102 51 354 5 13 43 69 74 0 348 341 354 38 49 10 65 46 42 25 18 359 350 79 109 328 263 263 269 263 260 268 254 240 243
339 328 325 12 324 309 9 2 344 13 28 42 342 36 14 358 358 13 7 337 337 358 14 26 12 64 54 42 22 8 359 347 306 309 283 262 259 260 257 257 244 245 251 247
18 342 358 337 23 319 358 39 79 52 14 355 9 10 43 72 198 38 15 356 359 16 10 4 11 42 68 87 70 58 3 3 18 17 297 292 262 251 255 258 251 252 249 239
3 285 322 340 315 14 328 51 188 113 18 52 349 283 202 167 32 50 51 43 42 25 6 12 22 17 24 53 69 64 46 28 29 16 2 343 316 289 248 232 234 228 212 205
72 303 293 298 4 17 82 216 43 9 70 65 360 30 29 30 39 42 32 26 30 41 26 28 24 32 28 31 30 52 59 51 33 33 32 32 35 45 62 80 138 166 147 148
68 93 298 24 37 351 345 18 49 114 100 140 127 325 304 54 40 42 30 31 26 25 22 26 32 40 47 47 44 51 50 51 48 33 48 36 25 42 64 83 103 104 121 120
30 94 261 252 306 268 233 1 22 99 274 66 96 279 37 52 69 73 37 26 27 34 20 18 20 27 32 35 35 30 25 25 24 26 28 29 25 30 47 57 56 56 67 87
13 349 6 350 2 1 37 358 350 62 74 8 119 220 121 56 74 58 74 44 36 27 23 16 25 23 23 26 30 32 31 23 14 8 12 22 25 23 34 45 57 71 76 75
338 85 157 180 181 334 319 352 354 53 87 175 194 163 202 99 124 94 83 62 42 35 22 16 19 15 18 22 23 23 21 21 13 355 343 343 351 358 21 62 86 103 108 105
52 160 25 184 32 46 283 297 333 77 169 139 182 167 194 179 141 78 83 59 49 28 18 9 4 0 8 9 12 11 12 10 4 358 341 333 321 301 277 226 194 178 159 119
18 151 49 314 358 27 297 274 279 277 225 106 95 292 145 117 118 93 98 64 43 25 8 356 356 1 1 1 0 1 2 0 359 355 347 327 306 288 276 262 245 222 200 181
61 119 68 270 333 355 343 227 199 201 211 142 165 225 126 55 99 143 139 112 89 31 353 344 340 343 347 351 353 355 354 355 355 354 352 343 317 292 271 250 234 224 220 209
124 93 73 228 8 13 240 253 109 251 264 206 143 136 135 163 121 138 175 137 33 342 334 327 326 333 343 343 346 349 354 354 355 354 350 348 335 307 279 251 233 223 211 205
56 127 74 128 174 290 301 184 154 173 217 191 207 170 132 137 101 18 210 215 237 258 286 295 313 318 327 333 339 341 347 348 350 350 347 342 333 317 284 257 233 218 208 199
51 60 112 83 129 216 259 184 143 120 328 189 191 165 145 138 95 256 270 305 304 305 295 310 319 313 322 334 332 336 340 343 345 346 345 343 336 318 287 252 228 215 207 200
73 14 151 166 191 287 250 222 42 85 224 139 122 133 143 147 193 219 297 302 303 302 308 310 311 308 320 326 321 322 328 334 335 338 341 341 339 332 307 247 217 206 191 181
168 142 191 92 84 272 178 99 151 200 156 134 130 161 189 214 272 285 293 289 302 302 307 312 303 298 308 313 307 305 308 320 323 328 335 340 336 329 272 219 197 183 177 171
223 189 178 181 210 242 197 104 162 163 150 168 152 183 212 256 260 297 277 292 295 298 298 301 299 305 306 304 296 286 296 305 310 310 323 323 327 287 201 190 181 177 187 187
239 174 180 110 231 227 231 216 232 202 194 183 217 215 184 234 275 272 283 288 295 301 299 304 300 301 300 304 297 280 279 288 291 291 288 286 276 262 238 205 196 189 184 185
192 142 172 265 274 310 253 219 217 213 222 241 241 212 223 218 268 252 270 275 282 286 294 299 296 296 295 305 301 286 271 273 273 269 267 260 255 255 240 230 220 219 225 228
192 177 171 215 202 167 185 153 167 188 205 212 203 246 245 223 245 250 252 269 276 282 293 294 295 293 296 300 294 287 264 262 264 262 259 255 253 252 250 246 244 245 247 248